Location: Peebles
(55.6412°N, 3.1714°W)
Time: 09:19:42
(UTC+01:00)

NOSS 3-3 (A) - Pass Details

Date: 06 February 2022
Orbit: 789 x 1423 km, 63.4° (Epoch: 23 April)

Event Time Altitude Azimuth Distance (km) Brightness Sun altitude
Exits shadow 05:58:07 - 221° (SW) 2,577 5.9 -16.8°
Reaches altitude 10° 05:58:15 10° 221° (SW) 2,527 5.8 -16.8°
Maximum altitude 06:04:06 77° 136° (SE) 997 4.1 -16.0°
Drops below altitude 10° 06:10:58 10° 52° (NE) 2,946 7.2 -15.0°
Sets 06:13:51 0° 52° (NE) 4,007 7.9 -14.6°
